Location: Exeidioux
(45.6312°N, 1.6819°E)
Time: 20:43:46
(UTC+00:00)

Resurs 01 Rocket - Pass Details

Date: 03 March 2021
Orbit: 635 x 643 km, 98.0° (Epoch: 13 April)

Event Time Altitude Azimuth Distance (km) Brightness Sun altitude
Exits shadow 20:50:14 25° 331° (NNW) 1,297 3.6 -32.6°
Drops below altitude 10° 20:52:09 10° 339° (NNW) 2,033 4.7 -32.9°
Sets 20:54:24 0° 344° (NNW) 2,947 5.6 -33.3°
